Year,Month,Day,Hour,Minute,Value (Times are PST for temperature in C)
2018,07,14,00,00,19.40
2018,07,14,00,01,19.40
2018,07,14,00,02,19.40
2018,07,14,00,03,19.40
2018,07,14,00,04,19.40
2018,07,14,00,05,19.40
2018,07,14,00,06,19.40
2018,07,14,00,07,19.40
2018,07,14,00,08,19.40
2018,07,14,00,09,19.40
2018,07,14,00,10,19.40
2018,07,14,00,11,19.40
2018,07,14,00,12,19.40
2018,07,14,00,13,19.40
2018,07,14,00,14,19.30
2018,07,14,00,15,19.30
2018,07,14,00,16,19.30
2018,07,14,00,17,19.30
2018,07,14,00,18,19.30
2018,07,14,00,19,19.30
2018,07,14,00,20,19.30
2018,07,14,00,21,19.30
2018,07,14,00,22,19.30
2018,07,14,00,23,19.30
2018,07,14,00,24,19.30
2018,07,14,00,25,19.30
2018,07,14,00,26,19.30
2018,07,14,00,27,19.30
2018,07,14,00,28,19.30
2018,07,14,00,29,19.30
2018,07,14,00,30,19.20
2018,07,14,00,31,19.20
2018,07,14,00,32,19.20
2018,07,14,00,33,19.10
2018,07,14,00,34,19.10
2018,07,14,00,35,19.10
2018,07,14,00,36,19.00
2018,07,14,00,37,19.00
2018,07,14,00,38,19.00
2018,07,14,00,39,19.00
2018,07,14,00,40,18.90
2018,07,14,00,41,18.90
2018,07,14,00,42,18.90
2018,07,14,00,43,18.90
2018,07,14,00,44,18.90
2018,07,14,00,45,18.90
2018,07,14,00,46,19.00
2018,07,14,00,47,19.00
2018,07,14,00,48,19.00
2018,07,14,00,49,18.90
2018,07,14,00,50,19.00
2018,07,14,00,51,19.00
2018,07,14,00,52,18.90
2018,07,14,00,53,18.90
2018,07,14,00,54,18.90
2018,07,14,00,55,18.90
2018,07,14,00,56,18.90
2018,07,14,00,57,18.90
2018,07,14,00,58,18.90
2018,07,14,00,59,18.80
2018,07,14,01,00,18.80
2018,07,14,01,01,18.80
2018,07,14,01,02,18.80
2018,07,14,01,03,18.80
2018,07,14,01,04,18.80
2018,07,14,01,05,18.80
2018,07,14,01,06,18.80
2018,07,14,01,07,18.80
2018,07,14,01,08,18.80
2018,07,14,01,09,18.90
2018,07,14,01,10,18.90
2018,07,14,01,11,19.00
2018,07,14,01,12,18.90
2018,07,14,01,13,19.00
2018,07,14,01,14,19.00
2018,07,14,01,15,19.10
2018,07,14,01,16,19.10
2018,07,14,01,17,19.10
2018,07,14,01,18,19.10
2018,07,14,01,19,19.10
2018,07,14,01,20,19.10
2018,07,14,01,21,19.10
2018,07,14,01,22,19.20
2018,07,14,01,23,19.20
2018,07,14,01,24,19.20
2018,07,14,01,25,19.20
2018,07,14,01,26,19.20
2018,07,14,01,27,19.20
2018,07,14,01,28,19.20
2018,07,14,01,29,19.20
2018,07,14,01,30,19.20
2018,07,14,01,31,19.20
2018,07,14,01,32,19.30
2018,07,14,01,33,19.20
2018,07,14,01,34,19.20
2018,07,14,01,35,19.20
2018,07,14,01,36,19.20
2018,07,14,01,37,19.20
2018,07,14,01,38,19.20
2018,07,14,01,39,19.20
2018,07,14,01,40,19.20
2018,07,14,01,41,19.20
2018,07,14,01,42,19.20
2018,07,14,01,43,19.10
2018,07,14,01,44,19.10
2018,07,14,01,45,19.00
2018,07,14,01,46,19.00
2018,07,14,01,47,19.00
2018,07,14,01,48,19.00
2018,07,14,01,49,19.00
2018,07,14,01,50,19.00
2018,07,14,01,51,19.00
2018,07,14,01,52,19.00
2018,07,14,01,53,19.10
2018,07,14,01,54,19.10
2018,07,14,01,55,19.10
2018,07,14,01,56,19.10
2018,07,14,01,57,19.20
2018,07,14,01,58,19.20
2018,07,14,01,59,19.20
2018,07,14,02,00,19.20
2018,07,14,02,01,19.30
2018,07,14,02,02,19.30
2018,07,14,02,03,19.30
2018,07,14,02,04,19.40
2018,07,14,02,05,19.40
2018,07,14,02,06,19.40
2018,07,14,02,07,19.40
2018,07,14,02,08,19.40
2018,07,14,02,09,19.30
2018,07,14,02,10,19.30
2018,07,14,02,11,19.30
2018,07,14,02,12,19.20
2018,07,14,02,13,19.20
2018,07,14,02,14,19.20
2018,07,14,02,15,19.10
2018,07,14,02,16,19.10
2018,07,14,02,17,19.10
2018,07,14,02,18,19.10
2018,07,14,02,19,19.10
2018,07,14,02,20,19.10
2018,07,14,02,21,19.10
2018,07,14,02,22,19.10
2018,07,14,02,23,19.10
2018,07,14,02,24,19.10
2018,07,14,02,25,19.10
2018,07,14,02,26,19.10
2018,07,14,02,27,19.10
2018,07,14,02,28,19.10
2018,07,14,02,29,19.20
2018,07,14,02,30,19.20
2018,07,14,02,31,19.20
2018,07,14,02,32,19.30
2018,07,14,02,33,19.30
2018,07,14,02,34,19.30
2018,07,14,02,35,19.40
2018,07,14,02,36,19.40
2018,07,14,02,37,19.50
2018,07,14,02,38,19.50
2018,07,14,02,39,19.50
2018,07,14,02,40,19.40
2018,07,14,02,41,19.40
2018,07,14,02,42,19.50
2018,07,14,02,43,19.40
2018,07,14,02,44,19.40
2018,07,14,02,45,19.40
2018,07,14,02,46,19.40
2018,07,14,02,47,19.40
2018,07,14,02,48,19.30
2018,07,14,02,49,19.30
2018,07,14,02,50,19.30
2018,07,14,02,51,19.20
2018,07,14,02,52,19.20
2018,07,14,02,53,19.10
2018,07,14,02,54,19.10
2018,07,14,02,55,19.10
2018,07,14,02,56,19.10
2018,07,14,02,57,19.00
2018,07,14,02,58,19.00
2018,07,14,02,59,19.00
2018,07,14,03,00,18.90
2018,07,14,03,01,18.90
2018,07,14,03,02,18.90
2018,07,14,03,03,18.90
2018,07,14,03,04,18.80
2018,07,14,03,05,18.80
2018,07,14,03,06,18.80
2018,07,14,03,07,18.70
2018,07,14,03,08,18.70
2018,07,14,03,09,18.70
2018,07,14,03,10,18.70
2018,07,14,03,11,18.70
2018,07,14,03,12,18.70
2018,07,14,03,13,18.70
2018,07,14,03,14,18.60
2018,07,14,03,15,18.50
2018,07,14,03,16,18.50
2018,07,14,03,17,18.50
2018,07,14,03,18,18.40
2018,07,14,03,19,18.40
2018,07,14,03,20,18.30
2018,07,14,03,21,18.30
2018,07,14,03,22,18.20
2018,07,14,03,23,18.20
2018,07,14,03,24,18.20
2018,07,14,03,25,18.20
2018,07,14,03,26,18.10
2018,07,14,03,27,18.10
2018,07,14,03,28,18.10
2018,07,14,03,29,18.10
2018,07,14,03,30,18.10
2018,07,14,03,31,18.10
2018,07,14,03,32,18.00
2018,07,14,03,33,18.00
2018,07,14,03,34,18.00
2018,07,14,03,35,18.00
2018,07,14,03,36,18.00
2018,07,14,03,37,18.00
2018,07,14,03,38,17.90
2018,07,14,03,39,17.90
2018,07,14,03,40,17.90
2018,07,14,03,41,17.90
2018,07,14,03,42,17.90
2018,07,14,03,43,17.90
2018,07,14,03,44,17.90
2018,07,14,03,45,17.90
2018,07,14,03,46,17.90
2018,07,14,03,47,17.90
2018,07,14,03,48,17.80
2018,07,14,03,49,17.80
2018,07,14,03,50,17.80
2018,07,14,03,51,17.80
2018,07,14,03,52,17.80
2018,07,14,03,53,17.70
2018,07,14,03,54,17.70
2018,07,14,03,55,17.70
2018,07,14,03,56,17.70
2018,07,14,03,57,17.70
2018,07,14,03,58,17.70
2018,07,14,03,59,17.60
2018,07,14,04,00,17.60
2018,07,14,04,01,17.60
2018,07,14,04,02,17.60
2018,07,14,04,03,17.50
2018,07,14,04,04,17.50
2018,07,14,04,05,17.40
2018,07,14,04,06,17.40
2018,07,14,04,07,17.40
2018,07,14,04,08,17.40
2018,07,14,04,09,17.30
2018,07,14,04,10,17.30
2018,07,14,04,11,17.30
2018,07,14,04,12,17.30
2018,07,14,04,13,17.30
2018,07,14,04,14,17.20
2018,07,14,04,15,17.20
2018,07,14,04,16,17.20
2018,07,14,04,17,17.20
2018,07,14,04,18,17.20
2018,07,14,04,19,17.20
2018,07,14,04,20,17.20
2018,07,14,04,21,17.10
2018,07,14,04,22,17.10
2018,07,14,04,23,17.10
2018,07,14,04,24,17.10
2018,07,14,04,25,17.00
2018,07,14,04,26,17.00
2018,07,14,04,27,17.00
2018,07,14,04,28,17.00
2018,07,14,04,29,17.00
2018,07,14,04,30,16.90
2018,07,14,04,31,16.90
2018,07,14,04,32,16.90
2018,07,14,04,33,16.90
2018,07,14,04,34,16.90
2018,07,14,04,35,16.90
2018,07,14,04,36,16.90
2018,07,14,04,37,16.90
2018,07,14,04,38,16.90
2018,07,14,04,39,16.90
2018,07,14,04,40,16.90
2018,07,14,04,41,16.90
2018,07,14,04,42,16.80
2018,07,14,04,43,16.80
2018,07,14,04,44,16.80
2018,07,14,04,45,16.80
2018,07,14,04,46,16.80
2018,07,14,04,47,16.80
2018,07,14,04,48,16.80
2018,07,14,04,49,16.80
2018,07,14,04,50,16.70
2018,07,14,04,51,16.70
2018,07,14,04,52,16.70
2018,07,14,04,53,16.70
2018,07,14,04,54,16.70
2018,07,14,04,55,16.70
2018,07,14,04,56,16.70
2018,07,14,04,57,16.70
2018,07,14,04,58,16.70
2018,07,14,04,59,16.70
2018,07,14,05,00,16.70
2018,07,14,05,01,16.70
2018,07,14,05,02,16.70
2018,07,14,05,03,16.70
2018,07,14,05,04,16.70
2018,07,14,05,05,16.60
2018,07,14,05,06,16.60
2018,07,14,05,07,16.60
2018,07,14,05,08,16.60
2018,07,14,05,09,16.60
2018,07,14,05,10,16.60
2018,07,14,05,11,16.60
2018,07,14,05,12,16.60
2018,07,14,05,13,16.60
2018,07,14,05,14,16.60
2018,07,14,05,15,16.60
2018,07,14,05,16,16.60
2018,07,14,05,17,16.60
2018,07,14,05,18,16.50
2018,07,14,05,19,16.50
2018,07,14,05,20,16.50
2018,07,14,05,21,16.50
2018,07,14,05,22,16.50
2018,07,14,05,23,16.50
2018,07,14,05,24,16.50
2018,07,14,05,25,16.40
2018,07,14,05,26,16.40
2018,07,14,05,27,16.50
2018,07,14,05,28,16.50
2018,07,14,05,29,16.50
2018,07,14,05,30,16.50
2018,07,14,05,31,16.50
2018,07,14,05,32,16.50
2018,07,14,05,33,16.50
2018,07,14,05,34,16.50
2018,07,14,05,35,16.50
2018,07,14,05,36,16.50
2018,07,14,05,37,16.40
2018,07,14,05,38,16.40
2018,07,14,05,39,16.40
2018,07,14,05,40,16.40
2018,07,14,05,41,16.40
2018,07,14,05,42,16.40
2018,07,14,05,43,16.40
2018,07,14,05,44,16.40
2018,07,14,05,45,16.50
2018,07,14,05,46,16.40
2018,07,14,05,47,16.40
2018,07,14,05,48,16.40
2018,07,14,05,49,16.40
2018,07,14,05,50,16.40
2018,07,14,05,51,16.40
2018,07,14,05,52,16.40
2018,07,14,05,53,16.40
2018,07,14,05,54,16.40
2018,07,14,05,55,16.30
2018,07,14,05,56,16.40
2018,07,14,05,57,16.40
2018,07,14,05,58,16.40
2018,07,14,05,59,16.40
2018,07,14,06,00,16.40
2018,07,14,06,01,16.40
2018,07,14,06,02,16.40
2018,07,14,06,03,16.40
2018,07,14,06,04,16.40
2018,07,14,06,05,16.40
2018,07,14,06,06,16.40
2018,07,14,06,07,16.40
2018,07,14,06,08,16.40
2018,07,14,06,09,16.40
2018,07,14,06,10,16.40
2018,07,14,06,11,16.40
2018,07,14,06,12,16.40
2018,07,14,06,13,16.40
2018,07,14,06,14,16.40
2018,07,14,06,15,16.40
2018,07,14,06,16,16.40
2018,07,14,06,17,16.40
2018,07,14,06,18,16.40
2018,07,14,06,19,16.40
2018,07,14,06,20,16.40
2018,07,14,06,21,16.40
2018,07,14,06,22,16.40
2018,07,14,06,23,16.40
2018,07,14,06,24,16.40
2018,07,14,06,25,16.40
2018,07,14,06,26,16.40
2018,07,14,06,27,16.40
2018,07,14,06,28,16.40
2018,07,14,06,29,16.40
2018,07,14,06,30,16.40
2018,07,14,06,31,16.40
2018,07,14,06,32,16.40
2018,07,14,06,33,16.40
2018,07,14,06,34,16.40
2018,07,14,06,35,16.40
2018,07,14,06,36,16.40
2018,07,14,06,37,16.40
2018,07,14,06,38,16.40
2018,07,14,06,39,16.40
2018,07,14,06,40,16.40
2018,07,14,06,41,16.40
2018,07,14,06,42,16.40
2018,07,14,06,43,16.40
2018,07,14,06,44,16.40
2018,07,14,06,45,16.40
2018,07,14,06,46,16.40
2018,07,14,06,47,16.40
2018,07,14,06,48,16.50
2018,07,14,06,49,16.50
2018,07,14,06,50,16.50
2018,07,14,06,51,16.60
2018,07,14,06,52,16.60
2018,07,14,06,53,16.60
2018,07,14,06,54,16.60
2018,07,14,06,55,16.60
2018,07,14,06,56,16.60
2018,07,14,06,57,16.60
2018,07,14,06,58,16.60
2018,07,14,06,59,16.70
2018,07,14,07,00,16.70
2018,07,14,07,01,16.70
2018,07,14,07,02,16.60
2018,07,14,07,03,16.60
2018,07,14,07,04,16.60
2018,07,14,07,05,16.70
2018,07,14,07,06,16.70
2018,07,14,07,07,16.70
2018,07,14,07,08,16.70
2018,07,14,07,09,16.70
2018,07,14,07,10,16.70
2018,07,14,07,11,16.70
2018,07,14,07,12,16.70
2018,07,14,07,13,16.70
2018,07,14,07,14,16.70
2018,07,14,07,15,16.70
2018,07,14,07,16,16.70
2018,07,14,07,17,16.70
2018,07,14,07,18,16.60
2018,07,14,07,19,16.60
2018,07,14,07,20,16.60
2018,07,14,07,21,16.60
2018,07,14,07,22,16.60
2018,07,14,07,23,16.60
2018,07,14,07,24,16.60
2018,07,14,07,25,16.60
2018,07,14,07,26,16.60
2018,07,14,07,27,16.60
2018,07,14,07,28,16.60
2018,07,14,07,29,16.70
2018,07,14,07,30,16.70
2018,07,14,07,31,16.70
2018,07,14,07,32,16.70
2018,07,14,07,33,16.70
2018,07,14,07,34,16.70
2018,07,14,07,35,16.70
2018,07,14,07,36,16.80
2018,07,14,07,37,16.80
2018,07,14,07,38,16.80
2018,07,14,07,39,16.80
2018,07,14,07,40,16.80
2018,07,14,07,41,16.80
2018,07,14,07,42,16.90
2018,07,14,07,43,16.90
2018,07,14,07,44,16.90
2018,07,14,07,45,16.90
2018,07,14,07,46,16.90
2018,07,14,07,47,16.90
2018,07,14,07,48,16.90
2018,07,14,07,49,16.90
2018,07,14,07,50,16.90
2018,07,14,07,51,16.90
2018,07,14,07,52,16.90
2018,07,14,07,53,16.90
2018,07,14,07,54,16.90
2018,07,14,07,55,16.90
2018,07,14,07,56,16.90
2018,07,14,07,57,16.90
2018,07,14,07,58,16.90
2018,07,14,07,59,16.90
2018,07,14,08,00,16.90
2018,07,14,08,01,16.90
2018,07,14,08,02,16.90
2018,07,14,08,03,16.90
2018,07,14,08,04,17.00
2018,07,14,08,05,16.90
2018,07,14,08,06,17.00
2018,07,14,08,07,17.00
2018,07,14,08,08,17.00
2018,07,14,08,09,17.00
2018,07,14,08,10,17.00
2018,07,14,08,11,17.00
2018,07,14,08,12,17.00
2018,07,14,08,13,17.00
2018,07,14,08,14,17.00
2018,07,14,08,15,17.00
2018,07,14,08,16,17.00
2018,07,14,08,17,17.00
2018,07,14,08,18,17.00
2018,07,14,08,19,17.00
2018,07,14,08,20,17.00
2018,07,14,08,21,17.00
2018,07,14,08,22,17.00
2018,07,14,08,23,17.00
2018,07,14,08,24,17.00
2018,07,14,08,25,17.00
2018,07,14,08,26,17.00
2018,07,14,08,27,17.10
2018,07,14,08,28,17.10
2018,07,14,08,29,17.10
2018,07,14,08,30,17.10
2018,07,14,08,31,17.10
2018,07,14,08,32,17.10
2018,07,14,08,33,17.20
2018,07,14,08,34,17.20
2018,07,14,08,35,17.20
2018,07,14,08,36,17.20
2018,07,14,08,37,17.20
2018,07,14,08,38,17.20
2018,07,14,08,39,17.20
2018,07,14,08,40,17.20
2018,07,14,08,41,17.20
2018,07,14,08,42,17.20
2018,07,14,08,43,17.20
2018,07,14,08,44,17.30
2018,07,14,08,45,17.30
2018,07,14,08,46,17.30
2018,07,14,08,47,17.30
2018,07,14,08,48,17.30
2018,07,14,08,49,17.40
2018,07,14,08,50,17.30
2018,07,14,08,51,17.40
2018,07,14,08,52,17.40
2018,07,14,08,53,17.50
2018,07,14,08,54,17.50
2018,07,14,08,55,17.60
2018,07,14,08,56,17.60
2018,07,14,08,57,17.60
2018,07,14,08,58,17.70
2018,07,14,08,59,17.70
2018,07,14,09,00,17.80
2018,07,14,09,01,17.80
2018,07,14,09,02,17.80
2018,07,14,09,03,17.80
2018,07,14,09,04,17.80
2018,07,14,09,05,17.90
2018,07,14,09,06,17.90
2018,07,14,09,07,17.90
2018,07,14,09,08,18.00
2018,07,14,09,09,17.90
2018,07,14,09,10,17.90
2018,07,14,09,11,17.90
2018,07,14,09,12,18.00
2018,07,14,09,13,18.00
2018,07,14,09,14,18.00
2018,07,14,09,15,18.00
2018,07,14,09,16,18.00
2018,07,14,09,17,18.00
2018,07,14,09,18,18.10
2018,07,14,09,19,18.00
2018,07,14,09,20,18.10
2018,07,14,09,21,18.10
2018,07,14,09,22,18.10
2018,07,14,09,23,18.10
2018,07,14,09,24,18.20
2018,07,14,09,25,18.20
2018,07,14,09,26,18.30
2018,07,14,09,27,18.30
2018,07,14,09,28,18.30
2018,07,14,09,29,18.30
2018,07,14,09,30,18.30
2018,07,14,09,31,18.30
2018,07,14,09,32,18.30
2018,07,14,09,33,18.30
2018,07,14,09,34,18.30
2018,07,14,09,35,18.30
2018,07,14,09,36,18.30
2018,07,14,09,37,18.40
2018,07,14,09,38,18.40
2018,07,14,09,39,18.40
2018,07,14,09,40,18.50
2018,07,14,09,41,18.50
2018,07,14,09,42,18.60
2018,07,14,09,43,18.70
2018,07,14,09,44,18.80
2018,07,14,09,45,18.90
2018,07,14,09,46,18.90
2018,07,14,09,47,19.00
2018,07,14,09,48,19.10
2018,07,14,09,49,19.10
2018,07,14,09,50,19.20
2018,07,14,09,51,19.30
2018,07,14,09,52,19.40
2018,07,14,09,53,19.50
2018,07,14,09,54,19.70
2018,07,14,09,55,19.80
2018,07,14,09,56,19.90
2018,07,14,09,57,20.00
2018,07,14,09,58,20.10
2018,07,14,09,59,20.10
2018,07,14,10,00,20.10
2018,07,14,10,01,20.10
2018,07,14,10,02,20.20
2018,07,14,10,03,20.20
2018,07,14,10,04,20.30
2018,07,14,10,05,20.30
2018,07,14,10,06,20.40
2018,07,14,10,07,20.40
2018,07,14,10,08,20.40
2018,07,14,10,09,20.40
2018,07,14,10,10,20.50
2018,07,14,10,11,20.50
2018,07,14,10,12,20.60
2018,07,14,10,13,20.60
2018,07,14,10,14,20.70
2018,07,14,10,15,20.70
2018,07,14,10,16,20.60
2018,07,14,10,17,20.60
2018,07,14,10,18,20.70
2018,07,14,10,19,20.70
2018,07,14,10,20,20.60
2018,07,14,10,21,20.60
2018,07,14,10,22,20.50
2018,07,14,10,23,20.50
2018,07,14,10,24,20.50
2018,07,14,10,25,20.50
2018,07,14,10,26,20.60
2018,07,14,10,27,20.60
2018,07,14,10,28,20.60
2018,07,14,10,29,20.60
2018,07,14,10,30,20.60
2018,07,14,10,31,20.60
2018,07,14,10,32,20.60
2018,07,14,10,33,20.70
2018,07,14,10,34,20.70
2018,07,14,10,35,20.80
2018,07,14,10,36,20.80
2018,07,14,10,37,20.80
2018,07,14,10,38,20.80
2018,07,14,10,39,20.80
2018,07,14,10,40,20.90
2018,07,14,10,41,20.90
2018,07,14,10,42,21.00
2018,07,14,10,43,21.10
2018,07,14,10,44,21.10
2018,07,14,10,45,21.10
2018,07,14,10,46,21.10
2018,07,14,10,47,21.10
2018,07,14,10,48,21.10
2018,07,14,10,49,21.00
2018,07,14,10,50,21.00
2018,07,14,10,51,21.00
2018,07,14,10,52,21.10
2018,07,14,10,53,21.10
2018,07,14,10,54,21.10
2018,07,14,10,55,21.10
2018,07,14,10,56,21.10
2018,07,14,10,57,21.20
2018,07,14,10,58,21.10
2018,07,14,10,59,21.10
2018,07,14,11,00,21.20
2018,07,14,11,01,21.20
2018,07,14,11,02,21.20
2018,07,14,11,03,21.30
2018,07,14,11,04,21.30
2018,07,14,11,05,21.20
2018,07,14,11,06,21.10
2018,07,14,11,07,21.20
2018,07,14,11,08,21.30
2018,07,14,11,09,21.30
2018,07,14,11,10,21.40
2018,07,14,11,11,21.50
2018,07,14,11,12,21.60
2018,07,14,11,13,21.50
2018,07,14,11,14,21.50
2018,07,14,11,15,21.50
2018,07,14,11,16,21.40
2018,07,14,11,17,21.50
2018,07,14,11,18,21.60
2018,07,14,11,19,21.70
2018,07,14,11,20,21.70
2018,07,14,11,21,21.80
2018,07,14,11,22,21.90
2018,07,14,11,23,21.90
2018,07,14,11,24,21.80
2018,07,14,11,25,21.70
2018,07,14,11,26,21.70
2018,07,14,11,27,21.70
2018,07,14,11,28,21.60
2018,07,14,11,29,21.60
2018,07,14,11,30,21.60
2018,07,14,11,31,21.60
2018,07,14,11,32,21.60
2018,07,14,11,33,21.70
2018,07,14,11,34,21.70
2018,07,14,11,35,21.60
2018,07,14,11,36,21.70
2018,07,14,11,37,21.70
2018,07,14,11,38,21.70
2018,07,14,11,39,21.70
2018,07,14,11,40,21.80
2018,07,14,11,41,21.80
2018,07,14,11,42,21.80
2018,07,14,11,43,21.80
2018,07,14,11,44,21.80
2018,07,14,11,45,21.90
2018,07,14,11,46,22.10
2018,07,14,11,47,22.20
2018,07,14,11,48,22.20
2018,07,14,11,49,22.20
2018,07,14,11,50,22.10
2018,07,14,11,51,22.20
2018,07,14,11,52,22.20
2018,07,14,11,53,22.20
2018,07,14,11,54,22.20
2018,07,14,11,55,22.30
2018,07,14,11,56,22.30
2018,07,14,11,57,22.30
2018,07,14,11,58,22.40
2018,07,14,11,59,22.50
2018,07,14,12,00,22.60
2018,07,14,12,01,22.70
2018,07,14,12,02,22.70
2018,07,14,12,03,22.80
2018,07,14,12,04,22.90
2018,07,14,12,05,23.00
2018,07,14,12,06,23.00
2018,07,14,12,07,23.00
2018,07,14,12,08,22.90
2018,07,14,12,09,22.90
2018,07,14,12,10,22.80
2018,07,14,12,11,22.70
2018,07,14,12,12,22.60
2018,07,14,12,13,22.60
2018,07,14,12,14,22.50
2018,07,14,12,15,22.50
2018,07,14,12,16,22.50
2018,07,14,12,17,22.60
2018,07,14,12,18,22.60
2018,07,14,12,19,22.70
2018,07,14,12,20,22.70
2018,07,14,12,21,22.70
2018,07,14,12,22,22.70
2018,07,14,12,23,22.60
2018,07,14,12,24,22.70
2018,07,14,12,25,22.70
2018,07,14,12,26,22.70
2018,07,14,12,27,22.70
2018,07,14,12,28,22.80
2018,07,14,12,29,22.80
2018,07,14,12,30,22.80
2018,07,14,12,31,22.80
2018,07,14,12,32,22.90
2018,07,14,12,33,22.90
2018,07,14,12,34,23.00
2018,07,14,12,35,23.10
2018,07,14,12,36,23.20
2018,07,14,12,37,23.30
2018,07,14,12,38,23.40
2018,07,14,12,39,23.50
2018,07,14,12,40,23.50
2018,07,14,12,41,23.50
2018,07,14,12,42,23.40
2018,07,14,12,43,23.40
2018,07,14,12,44,23.40
2018,07,14,12,45,23.30
2018,07,14,12,46,23.20
2018,07,14,12,47,23.20
2018,07,14,12,48,23.20
2018,07,14,12,49,23.20
2018,07,14,12,50,23.30
2018,07,14,12,51,23.30
2018,07,14,12,52,23.20
2018,07,14,12,53,23.20
2018,07,14,12,54,23.20
2018,07,14,12,55,23.20
2018,07,14,12,56,23.20
2018,07,14,12,57,23.30
2018,07,14,12,58,23.30
2018,07,14,12,59,23.40
2018,07,14,13,00,23.40
2018,07,14,13,01,23.40
2018,07,14,13,02,23.50
2018,07,14,13,03,23.60
2018,07,14,13,04,23.60
2018,07,14,13,05,23.70
2018,07,14,13,06,23.80
2018,07,14,13,07,23.80
2018,07,14,13,08,23.80
2018,07,14,13,09,23.80
2018,07,14,13,10,23.80
2018,07,14,13,11,23.80
2018,07,14,13,12,23.80
2018,07,14,13,13,23.90
2018,07,14,13,14,24.00
2018,07,14,13,15,24.00
2018,07,14,13,16,24.10
2018,07,14,13,17,24.10
2018,07,14,13,18,24.20
2018,07,14,13,19,24.30
2018,07,14,13,20,24.30
2018,07,14,13,21,24.30
2018,07,14,13,22,24.30
2018,07,14,13,23,24.20
2018,07,14,13,24,24.10
2018,07,14,13,25,24.10
2018,07,14,13,26,24.20
2018,07,14,13,27,24.30
2018,07,14,13,28,24.30
2018,07,14,13,29,24.40
2018,07,14,13,30,24.50
2018,07,14,13,31,24.50
2018,07,14,13,32,24.50
2018,07,14,13,33,24.60
2018,07,14,13,34,24.70
2018,07,14,13,35,24.70
2018,07,14,13,36,24.70
2018,07,14,13,37,24.80
2018,07,14,13,38,24.80
2018,07,14,13,39,24.90
2018,07,14,13,40,24.90
2018,07,14,13,41,25.00
2018,07,14,13,42,25.10
2018,07,14,13,43,25.10
2018,07,14,13,44,25.10
2018,07,14,13,45,25.20
2018,07,14,13,46,25.10
2018,07,14,13,47,25.10
2018,07,14,13,48,25.10
2018,07,14,13,49,25.10
2018,07,14,13,50,25.10
2018,07,14,13,51,25.00
2018,07,14,13,52,25.00
2018,07,14,13,53,25.00
2018,07,14,13,54,25.00
2018,07,14,13,55,25.00
2018,07,14,13,56,25.00
2018,07,14,13,57,24.90
2018,07,14,13,58,24.90
2018,07,14,13,59,25.00
2018,07,14,14,00,25.10
2018,07,14,14,01,25.20
2018,07,14,14,02,25.20
2018,07,14,14,03,25.30
2018,07,14,14,04,25.40
2018,07,14,14,05,25.50
2018,07,14,14,06,25.50
2018,07,14,14,07,25.60
2018,07,14,14,08,25.60
2018,07,14,14,09,25.80
2018,07,14,14,10,25.80
2018,07,14,14,11,25.80
2018,07,14,14,12,25.80
2018,07,14,14,13,25.80
2018,07,14,14,14,25.90
2018,07,14,14,15,26.00
2018,07,14,14,16,26.10
2018,07,14,14,17,26.10
2018,07,14,14,18,26.20
2018,07,14,14,19,26.20
2018,07,14,14,20,26.20
2018,07,14,14,21,26.30
2018,07,14,14,22,26.30
2018,07,14,14,23,26.40
2018,07,14,14,24,26.40
2018,07,14,14,25,26.40
2018,07,14,14,26,26.40
2018,07,14,14,27,26.40
2018,07,14,14,28,26.30
2018,07,14,14,29,26.30
2018,07,14,14,30,26.40
2018,07,14,14,31,26.40
2018,07,14,14,32,26.30
2018,07,14,14,33,26.30
2018,07,14,14,34,26.20
2018,07,14,14,35,26.20
2018,07,14,14,36,26.10
2018,07,14,14,37,26.10
2018,07,14,14,38,26.00
2018,07,14,14,39,25.90
2018,07,14,14,40,25.80
2018,07,14,14,41,25.70
2018,07,14,14,42,25.60
2018,07,14,14,43,25.50
2018,07,14,14,44,25.50
2018,07,14,14,45,25.60
2018,07,14,14,46,25.60
2018,07,14,14,47,25.70
2018,07,14,14,48,25.80
2018,07,14,14,49,25.80
2018,07,14,14,50,25.80
2018,07,14,14,51,25.70
2018,07,14,14,52,25.80
2018,07,14,14,53,25.80
2018,07,14,14,54,25.90
2018,07,14,14,55,26.00
2018,07,14,14,56,26.10
2018,07,14,14,57,26.10
2018,07,14,14,58,26.00
2018,07,14,14,59,26.00
2018,07,14,15,00,26.00
2018,07,14,15,01,26.00
2018,07,14,15,02,26.00
2018,07,14,15,03,25.90
2018,07,14,15,04,25.90
2018,07,14,15,05,25.90
2018,07,14,15,06,25.90
2018,07,14,15,07,25.90
2018,07,14,15,08,26.00
2018,07,14,15,09,26.00
2018,07,14,15,10,26.10
2018,07,14,15,11,26.20
2018,07,14,15,12,26.30
2018,07,14,15,13,26.40
2018,07,14,15,14,26.50
2018,07,14,15,15,26.50
2018,07,14,15,16,26.50
2018,07,14,15,17,26.60
2018,07,14,15,18,26.60
2018,07,14,15,19,26.70
2018,07,14,15,20,26.70
2018,07,14,15,21,26.60
2018,07,14,15,22,26.60
2018,07,14,15,23,26.60
2018,07,14,15,24,26.60
2018,07,14,15,25,26.60
2018,07,14,15,26,26.70
2018,07,14,15,27,26.70
2018,07,14,15,28,26.70
2018,07,14,15,29,26.70
2018,07,14,15,30,26.70
2018,07,14,15,31,26.70
2018,07,14,15,32,26.60
2018,07,14,15,33,26.70
2018,07,14,15,34,26.80
2018,07,14,15,35,26.80
2018,07,14,15,36,26.80
2018,07,14,15,37,26.70
2018,07,14,15,38,26.60
2018,07,14,15,39,26.50
2018,07,14,15,40,26.40
2018,07,14,15,41,26.40
2018,07,14,15,42,26.50
2018,07,14,15,43,26.50
2018,07,14,15,44,26.40
2018,07,14,15,45,26.40
2018,07,14,15,46,26.30
2018,07,14,15,47,26.30
2018,07,14,15,48,26.30
2018,07,14,15,49,26.30
2018,07,14,15,50,26.30
2018,07,14,15,51,26.30
2018,07,14,15,52,26.30
2018,07,14,15,53,26.30
2018,07,14,15,54,26.30
2018,07,14,15,55,26.30
2018,07,14,15,56,26.30
2018,07,14,15,57,26.30
2018,07,14,15,58,26.30
2018,07,14,15,59,26.20
2018,07,14,16,00,26.20
2018,07,14,16,01,26.30
2018,07,14,16,02,26.40
2018,07,14,16,03,26.50
2018,07,14,16,04,26.70
2018,07,14,16,05,26.80
2018,07,14,16,06,26.80
2018,07,14,16,07,26.80
2018,07,14,16,08,26.90
2018,07,14,16,09,27.00
2018,07,14,16,10,27.00
2018,07,14,16,11,26.90
2018,07,14,16,12,26.90
2018,07,14,16,13,26.80
2018,07,14,16,14,26.70
2018,07,14,16,15,26.70
2018,07,14,16,16,26.70
2018,07,14,16,17,26.70
2018,07,14,16,18,26.70
2018,07,14,16,19,26.70
2018,07,14,16,20,26.70
2018,07,14,16,21,26.70
2018,07,14,16,22,26.70
2018,07,14,16,23,26.70
2018,07,14,16,24,26.70
2018,07,14,16,25,26.60
2018,07,14,16,26,26.50
2018,07,14,16,27,26.60
2018,07,14,16,28,26.60
2018,07,14,16,29,26.60
2018,07,14,16,30,26.60
2018,07,14,16,31,26.50
2018,07,14,16,32,26.60
2018,07,14,16,33,26.70
2018,07,14,16,34,26.70
2018,07,14,16,35,26.70
2018,07,14,16,36,26.70
2018,07,14,16,37,26.60
2018,07,14,16,38,26.50
2018,07,14,16,39,26.50
2018,07,14,16,40,26.40
2018,07,14,16,41,26.40
2018,07,14,16,42,26.50
2018,07,14,16,43,26.50
2018,07,14,16,44,26.60
2018,07,14,16,45,26.60
2018,07,14,16,46,26.60
2018,07,14,16,47,26.60
2018,07,14,16,48,26.70
2018,07,14,16,49,26.70
2018,07,14,16,50,26.70
2018,07,14,16,51,26.70
2018,07,14,16,52,26.70
2018,07,14,16,53,26.70
2018,07,14,16,54,26.70
2018,07,14,16,55,26.70
2018,07,14,16,56,26.70
2018,07,14,16,57,26.70
2018,07,14,16,58,26.70
2018,07,14,16,59,26.70
2018,07,14,17,00,26.60
2018,07,14,17,01,26.60
2018,07,14,17,02,26.60
2018,07,14,17,03,26.60
2018,07,14,17,04,26.60
2018,07,14,17,05,26.60
2018,07,14,17,06,26.70
2018,07,14,17,07,26.80
2018,07,14,17,08,26.80
2018,07,14,17,09,26.80
2018,07,14,17,10,26.80
2018,07,14,17,11,26.80
2018,07,14,17,12,26.80
2018,07,14,17,13,26.90
2018,07,14,17,14,26.90
2018,07,14,17,15,27.00
2018,07,14,17,16,27.00
2018,07,14,17,17,27.10
2018,07,14,17,18,27.20
2018,07,14,17,19,27.30